Vertical_Velocity
-0 -0 -0 -0 -0 -1 -1 -1 -1 -1 -1 -0 -0 -1 -0 -0 -0 -0 -1 -0 -0 -0 -1 -1 -1 -0 -0 -0 -1 -1 -1 -1 -1 -1 -1 -1 -1 -1 -1 -1 -1 -1 -1 -2 -1 -1 -1 -0 0 1 1 0 -1 -1 -1 -1 -1 -2 -1 -1 -1 -1 -1 -1 -2 -2 -2 -0 1 1 0 -0 -0 0 0 -0 -1 -1 -1 -1 -1 -2 -1 -1 -1 -1 -1 -1 -2 -2 -2 -2 -1 -0 -2 -1 -0 -0 -2 -1 -1 -1 -1
-0 -0 -0 -0 -0 -0 -0 -0 -0 -0 -0 -0 -0 -0 -0 -0 -0 -0 -0 0 0 -0 -0 0 0 0 -0 -0 -0 -1 -1 -1 -1 -1 -1 -1 -1 -1 -1 -1 -1 -1 -1 -1 -1 -1 -1 -0 0 1 1 0 -1 -1 -2 -2 -2 -2 -1 -1 -0 -0 -0 -1 -1 -2 -2 -1 -1 -0 -0 -0 -1 -1 -0 -1 -1 -1 -1 -1 -1 -1 -1 -1 -1 -1 -1 -1 -1 -2 -2 -1 -1 -2 -2 -2 -1 -0 -1 -2 -1 -1 -1
-0 -0 -0 -0 -0 -0 0 0 0 0 0 -0 -0 -0 -0 -0 -0 -0 0 0 0 -0 -0 0 -0 -0 -1 -1 -1 -1 -1 -1 -1 -1 -1 -1 -1 -1 -1 -1 -1 -1 -1 -1 -1 -1 -1 -0 0 1 1 1 -1 -2 -2 -2 -2 -1 -1 -1 -1 -0 -0 -0 -1 -1 -1 -1 -2 -2 -2 -1 -1 -1 -0 -1 -1 -1 -2 -1 -1 -1 -1 -1 -1 -1 -1 -1 -0 -1 -1 -1 -1 -1 -1 -1 -1 -1 -1 -2 -2 -2 -2
0 -0 -0 -0 0 0 0 0 0 0 0 0 0 0 0 -0 0 0 0 0 0 -0 -0 -0 -1 -1 -1 -1 -1 -1 -1 -1 -0 -0 -1 -1 -1 -1 -1 -1 -1 -1 -1 -1 -1 -1 -1 -0 -0 0 0 0 -0 -1 -2 -2 -2 -1 -1 -1 -1 -1 -0 -0 -1 -1 -1 -1 -1 -2 -3 -2 -1 -2 -2 -2 -2 -2 -1 -1 -1 -1 -1 -1 -1 -1 -1 -1 -0 -1 -1 -1 -1 -1 -1 -1 -1 -1 -1 -1 -1 -1 -1
0 0 0 0 0 0 0 0 0 0 0 -0 -0 -0 -0 -0 -0 0 -0 -0 -0 -0 -0 -0 -0 -1 -1 -1 -1 -0 -0 -0 -0 -0 -1 -1 -1 -1 -1 -1 -1 -1 -1 -1 -1 -1 -1 -0 -0 -0 -0 0 -0 -0 -1 -1 -1 -1 -1 -1 -1 -1 -0 -0 -1 -1 -1 -1 -1 -2 -2 -2 -2 -2 -2 -2 -2 -1 -1 -1 -1 -1 -1 -1 -1 -1 -1 -1 -1 -1 -1 -1 -1 -1 -1 -1 -1 -1 -0 -0 -0 -1 -1
0 0 1 0 0 0 0 0 0 -0 -0 -0 -0 -0 -1 -0 -0 -0 -0 -0 -0 -0 -0 0 0 -0 -0 -0 -0 -0 -0 -0 -0 -0 -0 -0 -0 -0 -0 -0 -0 -0 -0 -1 -1 -1 -1 -1 -1 -0 -0 -0 -0 -0 -0 -0 -0 -0 -1 -1 -1 -1 -1 -0 -1 -1 -1 -1 -1 -1 -2 -2 -2 -2 -2 -2 -1 -1 -1 -1 -1 -1 -1 -1 -1 -1 -1 -1 -1 -1 -1 -0 -1 -1 -1 -1 -1 -1 -1 -0 -0 -0 -1
0 0 1 0 0 -0 -0 0 -1 -1 0 -0 -0 -1 -1 -1 -1 -1 -0 -0 0 0 0 0 0 0 0 0 -0 -0 -0 -0 -0 -0 -0 0 0 0 0 -0 -0 -0 -0 -0 -1 -1 -1 -1 -1 -0 -0 -1 -1 -1 -1 -0 -0 -0 -0 -0 -0 -0 -0 -0 -1 -1 -0 -1 -1 -1 -1 -1 -1 -2 -2 -1 -1 -1 -1 -1 -1 -1 -1 -1 -1 -1 -1 -1 -1 -0 -1 -1 -1 -1 -1 -1 -1 -1 -1 -1 -1 -1 -1
0 0 0 0 0 0 0 0 0 -0 -0 -0 -0 -0 -1 -1 -1 -1 -0 -0 -0 0 0 1 1 0 0 0 0 0 0 0 0 0 -0 0 0 0 0 0 0 -0 -0 -0 -1 -1 -1 -1 -1 -0 -0 -1 -1 -1 -1 -0 -0 -0 -0 -0 -0 -0 -0 -0 -0 -0 -0 -0 -0 -1 -1 -1 -1 -1 -1 -1 -1 -1 -1 -1 -1 -1 -1 -1 -1 -1 -1 -1 -1 -1 -1 -1 -1 -1 -1 -1 -1 -1 -1 -1 -1 -1 -1
0 0 0 0 0 0 0 0 0 0 0 0 -0 -0 -0 0 0 -0 0 0 0 0 0 0 1 0 0 1 1 1 1 1 0 0 0 0 0 0 0 0 0 0 0 -0 -0 -1 -1 -1 -0 -0 -0 -0 -1 -1 -0 -0 -0 -0 -0 -0 0 0 0 0 0 0 0 0 0 -0 -0 -0 -1 -1 -0 -0 -0 -0 -0 -1 -1 -1 -1 -1 -1 -1 -1 -1 -1 -1 -1 -1 -1 -1 -1 -1 -1 -0 -1 -1 -1 -1 -1
0 0 0 0 0 0 0 0 0 0 0 0 0 0 0 1 0 0 0 0 0 1 0 0 0 0 0 1 1 1 1 1 1 1 0 0 0 0 0 0 0 0 0 0 0 -0 -0 -0 -0 0 0 -0 -0 -0 -0 -0 -0 -0 -0 0 0 -0 0 0 0 0 0 -0 -0 0 -0 -0 -0 -0 0 -0 -0 -0 -0 -0 -1 -1 -1 -0 -0 -0 -0 -0 -0 -1 -1 -1 -1 -1 -1 -1 -1 -1 -1 -1 -1 -1 -1
0 0 0 0 -0 -0 0 -0 -0 -0 0 0 -0 0 0 0 0 0 0 0 0 0 1 1 1 1 0 1 1 1 1 1 1 1 0 0 0 1 1 1 1 1 1 1 1 0 0 0 0 0 1 1 0 0 0 -0 -0 -0 -0 0 0 -0 -0 0 0 0 0 0 0 0 -0 -0 -0 0 0 0 0 -0 -0 -0 -0 -0 -0 -0 -0 -0 -0 -1 -1 -1 -1 -1 -1 -1 -1 -1 -2 -2 -1 -1 -1 -1 -1
0 0 0 -0 -0 -0 -0 -0 -0 -0 -0 -0 -0 0 0 0 0 0 0 0 0 0 0 0 1 1 1 1 1 1 0 0 0 0 0 0 0 1 1 1 1 1 1 1 1 1 1 1 1 1 1 1 1 1 0 0 -0 -0 -0 0 0 -0 0 0 0 0 0 1 0 0 0 -0 0 0 0 0 0 0 -0 -0 -0 -0 -0 -0 -0 -0 -1 -1 -1 -0 -1 -1 -1 -1 -1 -1 -1 -1 -1 -1 -1 -1 -0
0 0 0 0 -0 -0 -0 -0 -0 -0 -0 -0 -0 -0 0 0 0 0 0 0 0 0 0 0 0 1 1 1 1 1 1 1 0 0 0 0 0 0 1 1 1 1 1 1 1 1 1 1 1 1 1 1 1 1 1 0 0 0 0 0 0 -0 0 0 0 0 0 0 0 0 0 0 0 0 0 0 0 0 0 0 0 -0 -0 -0 -0 -0 0 -1 -1 -1 -1 -1 -1 -1 -1 -1 -1 -1 -1 -0 -0 0 2
0 0 0 0 0 0 0 0 0 -0 -0 -0 -0 -0 -0 0 0 0 -0 -0 -0 -0 0 0 0 0 1 1 1 1 1 1 1 0 0 0 0 0 0 0 1 1 0 1 1 1 1 1 1 1 1 1 1 1 1 1 0 0 0 0 0 -0 0 1 0 0 0 0 0 0 0 0 0 0 0 0 0 0 0 0 0 0 0 0 0 0 0 -0 -0 -1 -0 -0 -0 -0 -1 -1 -1 -1 -1 -1 -1 -1 1
0 0 0 0 0 0 0 0 0 0 0 0 0 0 0 0 -0 -0 -0 -0 -0 -0 -0 -0 0 0 0 1 1 1 1 1 1 1 0 0 0 0 0 0 0 0 0 0 0 0 0 0 0 0 0 0 0 0 1 1 0 0 0 0 -0 -0 0 1 1 0 -0 0 0 0 -0 0 0 0 0 0 0 0 0 0 1 1 1 1 0 0 0 0 0 -0 -0 -0 -0 -0 -0 -0 -1 -1 -1 -1 -1 -1 -2
-1 -0 -0 -0 -0 -0 0 0 0 0 0 0 0 0 0 0 0 0 -0 -0 -0 -0 -0 -0 -0 -0 0 0 0 1 1 1 1 0 0 0 0 0 0 0 0 -0 -0 0 0 0 0 0 0 0 -0 -0 -0 -0 0 0 0 0 0 0 0 0 0 1 0 0 -0 -0 -0 -0 -0 0 0 0 0 0 0 0 0 0 1 1 1 1 1 1 1 0 1 1 0 0 0 0 0 -0 0 0 -0 -1 -1 -1 -1
-1 -1 -1 -1 -1 -1 -1 -0 -0 0 0 0 0 0 0 0 0 0 0 -0 -0 -0 -0 -0 -0 -0 -0 0 0 0 0 0 0 0 0 0 0 0 0 0 0 -0 -0 0 0 0 -0 -0 -0 -0 -0 -1 -1 -1 -0 -0 0 0 0 0 0 0 0 0 0 0 -0 -0 -0 -0 0 0 -0 -0 0 0 0 0 0 0 1 1 0 1 1 1 1 1 1 1 1 1 1 0 0 0 0 0 0 -0 -0 -0 -0
-1 -1 -1 -1 -1 -1 -1 -1 -0 -0 0 0 0 0 0 0 0 1 0 0 -0 -0 -0 -0 -0 -0 0 0 0 -0 -0 -0 -0 -0 0 0 0 0 0 0 0 0 0 0 0 0 0 -0 -0 -0 -0 -1 -1 -1 -1 -0 -0 -0 0 0 0 0 0 0 0 0 -0 -0 -0 -0 0 -0 -0 -0 -0 -0 -0 -0 0 0 0 0 -0 0 1 1 1 1 1 0 0 1 1 1 0 0 1 1 0 0 0 0 0
-1 -2 -2 -2 -1 -1 -1 -1 -0 0 0 0 0 0 -0 -0 -0 0 1 1 0 -0 -1 -1 -0 0 0 0 0 -0 -1 -0 -0 -0 0 0 0 -0 -0 -0 0 0 0 0 0 0 0 -0 -0 -0 -0 -0 -1 -1 -1 -1 -0 -0 0 0 0 0 0 0 0 0 -0 -0 -0 -0 -0 -0 -0 -0 -0 -0 -1 -0 0 -0 0 0 0 0 0 0 0 0 0 0 0 0 1 1 1 1 1 0 0 0 0 0 0
-1 -1 -1 -1 -1 -1 -1 -0 0 0 0 -0 -0 -0 -0 -1 -1 -0 0 1 0 -0 -1 -1 0 1 1 1 0 0 -0 -0 -0 0 0 0 0 -0 -0 0 0 0 0 0 0 0 0 0 0 -0 -0 -0 -1 -1 -1 -1 -1 -0 -0 0 0 0 0 0 0 -0 -0 -0 -0 -0 -0 -0 -0 -0 -1 -0 -0 -0 0 -0 -0 -0 -0 -0 -0 -0 -1 -0 -0 -0 0 0 0 0 0 1 1 1 1 1 0 0 1
-1 -1 -1 -1 -1 -1 -1 -1 -0 0 -0 -0 -0 -0 -0 -1 -1 -1 -0 0 0 -0 -1 -1 0 1 1 0 0 0 0 0 0 0 0 0 -0 -0 -0 -0 -0 -0 -0 -0 -0 -0 -0 -0 -0 -0 -0 -0 -0 -0 -1 -1 -1 -1 -0 -0 -0 -0 -0 -0 -0 -0 -0 -0 -0 -0 -0 -0 -0 -0 -1 -0 -0 -0 -0 -0 -1 -1 -1 -1 -1 -1 -1 -1 -1 -0 -0 -0 -0 0 0 0 0 0 1 0 0 0 1
-0 -0 -1 -1 -1 -1 -1 -1 -0 -0 -0 -1 -1 -0 -0 -1 -1 -1 -0 -0 0 -0 -1 -0 -0 0 -0 -0 -0 -0 -0 0 0 0 -0 -1 -1 -1 -1 -1 -1 -1 -1 -1 -1 -0 -0 -0 -0 -0 -0 -0 -0 -0 -1 -1 -1 -1 -0 -0 -0 -0 -0 -0 -0 -0 -0 -1 -1 -0 -0 -0 -0 -0 -1 -0 -1 -1 -0 -1 -1 -1 -1 -1 -1 -1 -1 -1 -1 -1 -0 -0 -0 -0 0 0 0 0 0 0 0 0 0
-0 -1 -1 -1 -1 -1 -1 -1 -1 -0 -0 -1 -1 -1 -1 -1 -1 -1 -1 -0 -0 -0 -0 -0 -0 -0 -1 -1 -1 -1 -1 -1 -1 -1 -1 -1 -1 -1 -1 -1 -1 -1 -1 -1 -1 -1 -0 -0 -0 -0 -0 -0 -0 -0 -0 -1 -1 -0 -0 -0 -0 -0 -0 -0 -0 -1 -1 -1 -1 -0 -0 -0 -0 -0 -1 -0 -0 -1 -1 -1 -1 -1 -1 -1 -1 -1 -1 -1 -1 -1 -1 -1 -0 -0 -0 -0 -0 -0 -0 -0 -0 -0 0
-1 -1 -1 -1 -0 -0 -1 -1 -1 -1 -0 -1 -1 -1 -1 -1 -1 -0 -1 -1 -1 -0 -0 -0 -1 -1 -2 -2 -1 -1 -1 -1 -1 -1 -1 -1 -1 -1 -1 -1 -1 -1 -1 -1 -1 -0 -0 -1 -1 -0 -0 -0 -0 -0 -0 -0 -0 -0 -0 -0 -0 -0 -0 -0 -0 -0 -0 -1 -0 -0 0 -0 -0 -1 -1 -0 -0 -0 -0 -1 -1 -1 -1 -1 -1 -1 -1 -1 -1 -1 -1 -1 -1 -1 -1 -1 -1 -1 -0 -1 -1 -1 -0
-1 -1 -1 -1 -0 -0 -1 -1 -1 -1 -1 -1 -1 -1 -2 -1 -1 -0 -0 -1 -1 -1 -1 -1 -1 -2 -2 -1 -1 -1 -1 -1 -1 -1 -1 -1 -1 -1 -1 -1 -0 -0 -0 -0 -0 -0 -0 -1 -1 -1 -0 -0 -0 -0 -0 -0 -0 -0 -0 -0 -0 -0 -0 -0 -0 -0 -0 -0 -0 0 -0 -0 -0 -1 -1 -1 -0 -0 -0 -0 -0 -1 -1 -1 -1 -1 -1 -1 -1 -1 -1 -1 -1 -1 -1 -1 -1 -1 -1 -1 -1 -1 -1
-0 -0 -1 -1 -1 -1 -1 -1 -1 -1 -1 -0 -0 -1 -2 -1 -1 -0 -0 -0 -0 -0 -1 -1 -1 -1 -1 -1 -1 -1 -1 -1 -1 -1 -1 -1 -1 -1 -1 -0 -0 -0 -0 -0 -0 -0 -0 -0 -0 -0 -0 -0 -0 -0 -0 0 0 0 0 -0 -0 -0 -0 -0 -0 -0 -0 -0 0 0 0 -0 -0 -0 -0 -0 -0 -0 -0 0 0 0 -0 -1 -1 -1 -1 -1 -1 -1 -1 -1 -1 -1 -1 -1 -1 -1 -1 -1 -1 -1 -1
-0 -0 -1 -1 -1 -1 -1 -1 -0 -0 -0 0 -0 -1 -2 -1 -1 -1 -0 -0 -0 -0 -1 -1 -1 -1 -1 -0 -0 -1 -1 -1 -1 -1 -1 -0 -0 -0 -0 -0 -0 -0 -0 -0 -0 -0 -0 -0 -0 -0 -0 0 -0 -0 -0 -0 0 0 0 -0 -0 -0 -0 -0 -0 -0 -0 -0 0 0 0 -0 -0 -0 -0 -0 -0 -0 -0 0 0 0 0 -0 -1 -1 -1 -0 -0 -0 -1 -1 -1 -1 -1 -1 -1 -1 -1 -1 -1 -1 -1
-1 -1 -1 -1 -1 -1 -1 -0 -0 -0 0 0 -0 -1 -1 -1 -1 -1 -1 -0 -0 -0 -0 -1 -1 -0 -0 -0 -0 -0 -0 -0 -0 -0 0 -0 -0 -0 -0 -0 -0 -0 -1 -0 -0 -0 -0 -0 -0 -0 -0 -0 -0 -0 -0 -0 0 0 0 -0 -0 -0 -0 -0 -0 -0 -0 -0 -0 0 0 -0 -0 -0 -0 -0 -0 -0 -0 -0 0 0 0 -0 -0 -0 -0 -0 -0 -0 -0 -0 -0 -0 -0 -0 -0 -0 -0 -0 -1 -1 -1
-1 -1 -1 -1 -1 -1 -1 -0 -0 -0 -0 -0 -1 -1 -1 0 -0 -1 -1 -0 -0 -0 -0 -0 -0 -0 -0 -0 -0 -0 0 0 0 0 0 0 0 0 0 -0 -0 -0 -0 -0 -0 -0 -0 -0 -0 -0 -0 -0 -0 -0 0 0 0 0 0 -0 0 0 -0 -0 -0 -0 -0 -0 -0 -0 0 -1 -1 -0 -0 -0 -0 -0 0 -0 -0 -0 -0 -0 -0 -0 -0 -0 -0 -0 0 -0 -0 -0 -0 -0 -0 -0 -0 -0 -0 -1 -1
-1 -1 -2 -2 -2 -1 -1 -1 -1 -1 -1 -1 -1 -2 -2 -0 0 0 -0 -0 0 -0 -0 0 0 0 0 -0 0 0 0 1 1 0 0 1 0 0 0 0 -0 -0 -0 -0 -0 -0 -0 -0 -0 0 -0 -0 0 0 0 0 0 0 0 0 0 -0 -0 -0 -0 -0 -1 -1 -1 -1 -0 -0 -0 -0 -0 -0 0 0 0 -0 -1 -1 -1 -1 -1 -1 -0 -0 -0 -0 0 0 0 -0 -0 -0 -0 -0 -1 -1 -1 -1 -1
-0 -0 -1 -1 -1 -1 -1 -2 -3 -3 -2 -1 -1 -1 -1 -1 -0 0 0 0 0 -0 -0 0 0 0 0 0 1 1 1 1 1 1 1 1 0 0 0 0 0 -0 -0 -0 -0 -0 -0 0 0 0 0 0 0 0 0 0 0 0 0 0 0 -0 -0 -0 -1 -1 -1 -1 -1 -1 -0 -0 -0 -0 -0 -0 -0 0 0 -0 -1 -1 -1 -1 -1 -1 -1 -1 -0 -0 -0 0 -0 -0 -1 -1 -1 -1 -1 -1 -1 -1 -1
0 -0 -1 -1 -1 -1 -0 -1 -2 -3 -3 -2 -1 -1 -1 -1 -0 -0 -0 -0 -0 -1 -0 0 1 1 1 1 1 1 1 1 1 1 0 0 0 0 0 0 0 0 0 -0 -0 -0 -0 0 0 0 0 0 1 1 0 0 0 0 0 -0 -0 -0 -0 -0 -1 -1 -1 -1 -1 -1 -1 -0 -0 -0 -0 -0 -0 -0 0 0 -0 -1 -1 -1 -1 -1 -1 -1 -1 -1 -0 -0 -1 -1 -1 -1 -1 -1 -1 -1 -1 -1 -1
0 -1 -1 -1 -1 -0 1 -0 -1 -2 -1 -1 -2 -1 0 -1 -1 -0 -0 -1 -1 -1 -1 0 1 1 1 1 1 1 1 0 0 -0 -0 -0 -0 -0 0 0 1 1 1 0 0 0 0 0 0 0 0 1 1 1 0 0 0 -0 -0 -0 -0 0 -0 -0 -1 -1 -1 -1 -1 -1 -1 -1 -0 -0 -0 -0 -0 -0 -0 -0 -0 -0 -0 -1 -1 -1 -1 -1 -1 -1 -1 -1 -1 -2 -2 -1 -1 -1 -1 -1 -1 -1 -1
-1 -1 -1 -1 -0 0 1 0 -0 -1 -0 -0 -0 -0 0 -1 -1 -0 -0 -1 -1 -1 -1 0 0 0 0 1 1 1 1 0 -0 -1 -1 -1 -1 -0 -0 0 1 1 1 1 1 0 0 0 0 0 1 1 1 1 0 -0 -0 -1 -1 -1 -0 -0 -0 -0 -1 -1 -1 -1 -1 -1 -1 -1 -1 -1 -0 -0 -0 -0 -1 -0 -0 -0 -0 -0 -0 -1 -1 -1 -1 -1 -1 -1 -2 -2 -1 -1 -1 -1 -1 -1 -1 -1 -1
-1 -1 -1 -1 -0 0 0 0 -0 -0 1 1 1 1 0 -1 -0 0 0 -0 -0 -0 0 0 0 0 0 0 0 1 1 1 0 -0 -1 -1 -1 -1 -0 0 1 1 1 1 1 1 0 1 1 1 1 1 1 0 -0 -0 -1 -1 -1 -1 -0 -0 -0 -0 -0 -1 -1 -1 -1 -1 -1 -1 -1 -1 -0 -0 -0 -0 -1 -0 -0 -0 -0 -0 -0 -0 -1 -1 -1 -1 -1 -1 -1 -1 -1 -1 -1 -1 -1 -1 -1 -1 -1
-1 -1 -1 -1 -0 -0 -0 -0 -0 -0 1 1 1 1 -0 -0 -0 0 0 0 1 1 1 0 0 0 -0 -0 0 0 1 1 0 0 -0 -0 -1 -1 -0 -0 0 0 1 1 1 0 0 0 0 1 1 0 0 0 0 -0 -1 -1 -1 -0 -0 -0 -0 -0 -0 -0 -0 -1 -1 -1 -1 -1 -0 -0 -0 -0 -1 -1 -1 -0 -0 -0 -0 -0 -0 -0 -0 -1 -1 -1 -1 -1 -1 -1 -0 -0 -0 -0 -0 -1 -1 -1 -1
-2 -1 -1 -0 0 0 -0 -0 -1 -1 -0 1 1 0 -1 -0 0 0 0 1 1 1 1 0 0 -0 -0 -0 -0 -0 0 0 0 0 -0 -1 -1 -1 -1 -0 -0 0 0 0 0 0 0 0 -0 -0 -0 0 0 0 0 -0 -0 -0 -0 -0 -0 -0 -0 -0 -0 -0 -0 -0 -1 -1 -1 -0 -0 -0 -0 -0 -0 -1 -1 -1 -1 -0 -0 -0 -0 -0 -0 -1 -1 -1 -1 -1 -1 -1 -0 -0 -0 -0 -0 -0 -1 -1 -1
-1 -1 -0 1 1 1 0 0 -0 -1 -1 -0 -1 -1 -0 0 0 0 0 1 1 1 1 0 -0 -0 -0 -0 -0 -0 -0 -0 -0 -0 -0 -1 -1 -1 -1 -0 -0 -0 -0 -0 -0 -0 -0 -1 -1 -1 -1 -1 -0 -0 -0 -0 -0 -0 -0 -0 -0 -0 -0 -0 -0 -0 -0 -0 -1 -1 -1 -0 -0 -0 0 -0 -0 -1 -1 -1 -1 -1 -1 -0 -0 -0 -0 -0 -1 -1 -1 -1 -1 -1 -1 -0 -0 0 -0 -0 -1 -1 -1
-1 -0 0 1 1 1 0 1 0 -0 -1 -1 -1 -0 0 0 1 0 0 0 0 0 -0 -0 -0 -0 -0 -0 -0 -0 -0 -0 -0 0 0 -0 -0 0 0 0 -0 -0 -0 -1 -1 -1 -1 -1 -1 -1 -1 -1 -1 -0 -0 -0 -0 -0 -0 -0 -0 -1 -1 -1 -0 -0 -0 -1 -1 -1 -1 -1 -1 -0 -0 -0 -0 -1 -1 -1 -1 -1 -1 -1 -1 -1 -1 -1 -1 -1 -1 -1 -1 -1 -1 -1 -0 -0 -0 -1 -1 -1 -1
-0 0 1 1 1 1 1 1 1 -0 -1 -1 -1 -0 0 1 1 0 -0 -0 -0 -0 -0 -0 -1 -1 -1 -0 -0 -0 -0 0 0 0 1 1 1 1 1 1 0 0 -0 -0 -1 -1 -1 -1 -1 -1 -1 -0 -0 -0 -0 -0 -0 -0 -0 -0 -0 -0 -1 -0 -0 -0 -0 -1 -1 -1 -1 -1 -1 -1 -1 -1 -1 -1 -1 -1 -1 -2 -1 -1 -1 -1 -1 -1 -1 -1 -1 -1 -1 -1 -1 -1 -1 -1 -1 -1 -1 -1 -1
0 1 1 1 1 1 1 1 0 -0 -1 -1 -0 0 1 1 1 0 -0 -0 -0 -0 -0 -0 -0 -1 -1 -0 -0 -0 0 0 1 1 1 1 1 1 1 1 1 1 0 0 -0 -0 -1 -1 -1 -1 -1 -0 -0 0 -0 -0 -0 -0 -1 -1 -1 -1 -0 -0 -0 -0 -0 -1 -1 -1 -1 -1 -1 -1 -1 -1 -1 -1 -1 -1 -1 -1 -1 -1 -1 -1 -2 -2 -2 -2 -1 -1 -1 -1 -1 -1 -1 -1 -1 -1 -2 -2 -1
1 1 1 1 1 1 1 1 0 -1 -1 -0 -0 0 1 1 1 0 -0 0 -0 -0 -0 -0 -0 -0 -1 -0 -0 0 0 0 1 1 1 1 1 1 1 1 1 1 1 1 0 -0 -0 -1 -1 -1 -1 -1 -0 -0 -0 -0 -1 -1 -1 -1 -1 -0 -0 -0 -0 -0 -0 -0 -0 -0 -1 -1 -1 -1 -1 -1 -1 -1 -1 -1 -1 -1 -1 -1 -1 -2 -2 -2 -2 -2 -2 -1 -1 -1 -1 -1 -1 -1 -1 -1 -1 -1 -1
1 1 1 2 2 1 1 1 -0 -1 -0 -0 0 0 1 1 0 0 0 0 0 0 -0 -0 -0 -0 -0 -0 0 0 0 0 0 0 0 0 0 0 0 0 1 1 1 1 0 -0 -0 -1 -1 -1 -1 -1 -1 -0 -0 -1 -1 -1 -1 -1 -0 0 0 0 0 -0 -0 -0 -0 -0 -0 -1 -1 -1 -1 -1 -1 -1 -1 -0 -0 -0 -1 -1 -1 -1 -2 -2 -2 -2 -2 -1 -1 -1 -1 -1 -1 -1 -1 -1 -1 -1 -1
2 2 2 2 2 2 2 0 -1 -1 -0 -0 0 0 1 1 0 0 0 0 0 0 -0 0 0 0 0 0 -0 -0 -0 -0 -0 -0 -1 -1 -1 -1 -1 -1 0 0 1 1 0 -0 -1 -1 -1 -1 -1 -1 -1 -1 -1 -1 -2 -2 -1 -1 0 0 1 0 0 0 -0 -0 -1 -1 -1 -1 -1 -1 -1 -1 -1 -1 -1 -0 -0 -0 -0 -1 -1 -1 -1 -2 -2 -1 -1 -1 -1 -0 -0 -1 -1 -0 -0 -0 -0 -1 -1
2 3 3 2 2 2 1 0 -1 -1 -0 -0 0 0 1 0 -0 -0 0 0 0 -0 0 0 0 0 0 -0 -0 -1 -1 -0 -0 -1 -1 -1 -2 -2 -2 -1 -1 -0 -0 -0 -0 -1 -1 -1 -1 -1 -1 -1 -1 -1 -1 -2 -2 -1 -1 -0 0 0 0 0 -0 -0 -1 -1 -1 -1 -1 -1 -1 -2 -2 -2 -1 -1 -1 -1 -1 -1 -1 -1 -1 -1 -1 -1 -1 -1 -1 -1 -1 -0 -0 -0 -0 -0 -0 -0 -0 -0 -0
2 2 2 1 1 1 1 -0 -1 -1 -0 -0 0 0 0 -0 -0 0 0 0 0 0 0 0 0 0 -0 -0 -0 -0 -0 -0 -0 -0 -1 -1 -2 -2 -2 -1 -1 -1 -1 -1 -1 -1 -1 -0 -0 -1 -1 -1 -1 -1 -1 -1 -1 -1 -1 -1 -0 -0 -1 -1 -1 -1 -1 -1 -1 -2 -2 -2 -2 -2 -2 -2 -2 -2 -1 -1 -1 -1 -1 -1 -1 -1 -1 -1 -1 -1 -1 -1 -1 -0 -0 -0 -0 -0 -0 -0 -0 -0 -0
2 2 1 0 0 1 0 -0 -1 -1 -0 -0 -0 -0 -0 -0 -0 0 1 0 0 0 1 1 1 0 -0 -0 -0 0 0 1 0 0 -0 -1 -1 -1 -1 -1 -1 -1 -1 -1 -1 -1 -1 -1 -1 -1 -1 -1 -1 -1 -1 -1 -1 -1 -1 -1 -1 -1 -2 -2 -2 -2 -2 -2 -2 -2 -2 -2 -2 -2 -2 -2 -2 -2 -2 -2 -2 -2 -2 -2 -2 -2 -1 -1 -1 -1 -1 -1 -1 -1 -1 -0 -0 -0 -0 -1 -0 -0 -0
3 2 1 0 1 0 -0 -1 -1 -1 -1 -1 -1 -0 -0 0 1 1 1 1 1 1 1 1 1 0 -0 -0 0 0 1 1 1 1 1 0 0 -0 -0 0 -0 -1 -0 -1 -1 -1 -1 -1 -1 -1 -1 -1 -1 -1 -0 -0 -1 -1 -1 -1 -2 -2 -2 -2 -2 -2 -2 -2 -2 -2 -2 -2 -2 -2 -2 -2 -2 -2 -2 -2 -2 -2 -2 -2 -2 -2 -2 -1 -1 -1 -1 -1 -1 -1 -1 -1 -1 -1 -1 -1 -1 -1 -0
2 2 1 1 0 -0 -1 -1 -1 -1 -1 -1 -0 0 1 2 2 2 1 1 1 1 1 1 0 -0 -0 -0 0 0 1 1 1 1 1 1 0 0 0 0 -0 -0 0 -0 -0 -1 -1 -1 -1 -1 -1 -1 -0 -0 -0 -0 -1 -1 -2 -2 -2 -2 -2 -2 -2 -2 -2 -2 -2 -2 -2 -2 -2 -2 -2 -2 -2 -2 -2 -2 -2 -2 -2 -2 -2 -2 -2 -1 -1 -1 -1 -1 -1 -1 -1 -1 -1 -1 -1 -1 -1 -1 -1
2 1 0 0 -0 -1 -2 -2 -1 -1 -1 0 1 2 2 2 1 1 1 1 0 0 1 1 0 -0 -0 0 0 0 0 0 0 0 1 0 -0 -0 -0 0 0 -0 0 -0 -0 -1 -1 -1 -1 -1 -1 -0 -0 -0 -1 -1 -1 -2 -2 -2 -2 -2 -2 -2 -2 -2 -2 -2 -2 -2 -2 -3 -2 -2 -2 -2 -2 -2 -2 -2 -2 -2 -2 -2 -2 -2 -2 -1 -1 -1 -1 -1 -1 -1 -1 -1 -1 -1 -1 -1 -1 -1 -1
1 0 -0 -1 -1 -2 -2 -2 -1 -1 0 1 2 2 1 1 0 0 0 0 0 0 0 0 0 0 0 0 0 -0 -1 -1 -0 -0 0 -0 -1 -1 -1 -1 -1 -0 -0 -0 -0 -1 -1 -1 -1 -1 -1 -1 -1 -1 -1 -1 -2 -2 -2 -2 -2 -2 -2 -2 -2 -2 -2 -2 -2 -2 -3 -3 -3 -3 -2 -2 -2 -2 -2 -2 -2 -2 -2 -2 -2 -2 -2 -2 -1 -1 -0 -1 -1 -1 -1 -1 -1 -1 -1 -1 -1 -1 -1
0 -0 -0 -1 -1 -2 -2 -1 -1 -0 1 2 1 1 -0 -1 -1 -1 -0 0 0 0 0 0 1 1 1 0 -0 -1 -1 -1 -1 -1 -0 -1 -1 -1 -1 -1 -1 -1 -1 -0 -0 -0 -1 -1 -1 -1 -1 -1 -1 -1 -1 -2 -2 -2 -2 -2 -2 -2 -2 -2 -2 -2 -2 -2 -2 -3 -3 -3 -3 -2 -2 -2 -2 -2 -2 -2 -2 -2 -2 -2 -2 -2 -2 -2 -2 -1 -1 -1 -1 -1 -1 -1 -1 -1 -1 -1 -1 -1 -1
0 -0 0 -1 -1 -1 -0 -1 -1 -1 1 1 1 0 -1 -1 -1 -1 -0 0 0 1 1 1 1 1 0 0 -0 -1 -1 -1 -1 -1 -0 -0 -1 -1 -1 -1 -1 -0 -1 -0 -0 -0 -1 -1 -1 -2 -2 -2 -1 -1 -2 -2 -2 -2 -2 -2 -2 -2 -2 -2 -2 -2 -2 -2 -2 -2 -2 -2 -2 -2 -2 -2 -2 -2 -2 -2 -2 -3 -3 -3 -3 -3 -3 -2 -2 -2 -1 -1 -1 -1 -1 -1 -1 -0 -1 -1 -1 -1 -1
0 -0 -0 -0 -0 -0 -1 -1 -1 -1 0 1 1 1 -0 -1 -1 -1 -1 0 0 1 1 1 1 0 0 -0 -1 -1 -1 -1 -1 -1 -0 -0 -0 -1 -1 -1 -1 -1 -1 -0 -0 -1 -2 -2 -2 -2 -2 -2 -2 -2 -2 -2 -2 -2 -1 -1 -1 -1 -2 -1 -1 -1 -1 -1 -1 -1 -2 -2 -2 -2 -2 -2 -2 -2 -2 -2 -3 -3 -3 -3 -3 -3 -3 -2 -2 -2 -2 -1 -1 -1 -1 -1 -0 -0 -0 -1 -1 -1 -2
0 -0 -0 0 0 -0 -2 -1 -1 -0 0 2 2 2 0 -1 -2 -1 -1 0 1 1 1 1 1 0 -0 -0 -1 -1 -1 -1 -1 -1 -0 -0 -0 -1 -1 -1 -1 -0 0 -0 -1 -2 -2 -2 -2 -1 -2 -2 -2 -2 -2 -2 -2 -2 -2 -1 -1 -1 -1 -1 -1 -1 -0 -0 -0 -0 -0 -1 -1 -1 -1 -2 -2 -2 -2 -2 -2 -3 -3 -3 -3 -2 -2 -2 -2 -2 -2 -2 -1 -1 -1 -1 -0 -0 -0 -1 -1 -2 -2
0 0 0 0 -0 -1 -1 -0 -0 0 1 2 2 1 -0 -1 -1 0 1 2 2 2 2 1 1 1 0 0 0 -0 -0 -1 -1 -1 -0 -0 -0 -0 -1 -0 -1 -1 -1 -1 -2 -2 -2 -1 -1 -2 -2 -2 -2 -2 -1 -1 -1 -2 -2 -2 -1 -1 -1 -0 -0 0 0 0 0 0 0 0 0 -0 -1 -1 -1 -2 -2 -2 -2 -2 -2 -2 -2 -2 -1 -1 -1 -2 -2 -2 -2 -1 -1 -1 -0 -0 -1 -1 -2 -2 -2
1 0 -0 -0 -1 -1 -0 -0 -0 -0 0 1 1 1 0 1 1 2 2 2 2 1 1 2 2 2 1 1 1 0 0 -0 -1 -1 -1 -0 -0 -0 -0 -0 -0 -0 -1 -1 -1 -1 -1 -1 -1 -1 -2 -1 -1 -1 -1 -1 -1 -2 -2 -2 -1 -1 -0 0 1 1 1 1 1 1 0 0 0 -0 -1 -1 -1 -1 -2 -2 -2 -2 -2 -2 -1 -1 -1 -1 -1 -1 -1 -2 -2 -1 -1 -1 -1 -1 -1 -1 -2 -2 -2
-0 -0 -0 -0 -0 -0 -0 -0 -0 0 0 1 1 2 2 2 1 1 0 -0 -0 0 2 2 2 2 2 1 1 0 0 0 0 -0 -0 -0 -0 -0 -0 -0 -0 -0 -1 -0 -0 -0 -0 -0 -1 -1 -1 -1 -0 -0 -0 -1 -1 -1 -1 -1 -1 -0 0 1 1 2 2 2 1 1 0 -0 -1 -1 -1 -1 -1 -1 -1 -2 -2 -2 -2 -1 -1 -1 -1 -1 -1 -1 -1 -1 -1 -1 -1 -1 -1 -1 -1 -1 -1 -1 -1
-1 -0 1 1 0 -0 -0 0 1 1 0 1 2 3 2 1 -0 -1 -1 -0 1 2 3 2 2 2 2 1 1 0 -0 0 1 1 0 -0 -1 -1 -0 -0 -0 0 0 -0 -0 -0 -1 -1 -0 -0 -0 -1 -1 -1 0 -0 -1 -1 -1 -1 -0 0 1 1 1 1 1 1 1 1 0 -0 -1 -1 -1 -1 -1 -1 -1 -2 -2 -2 -1 -1 -1 -1 -1 -1 -1 -1 -1 -1 -1 -1 -1 -1 -1 -1 -1 -1 -1 -1 -1
-0 0 1 0 -0 -0 0 1 2 1 1 2 2 2 1 -1 -1 0 1 2 2 3 2 2 2 3 2 1 -0 -1 -1 1 2 1 0 -1 -1 -1 0 -0 -0 0 0 -0 -0 -0 -1 -1 -1 -0 -0 -1 -1 -1 -2 -0 0 -0 -1 -1 -1 -0 0 1 1 1 0 0 0 1 1 0 -0 -1 -1 -1 -1 -1 -1 -2 -2 -2 -1 -1 -1 -1 -1 -1 -1 -1 -1 -1 -1 -1 -1 -1 -1 -1 -1 -1 -1 -1 -1
0 0 1 -0 -1 -0 1 1 1 1 1 2 2 1 1 0 1 2 2 2 2 2 2 2 2 2 0 -0 -1 -1 0 2 2 1 -0 -1 -0 0 1 0 0 0 0 -0 -0 -1 -1 -1 -1 -1 -1 -1 -1 -1 -3 -2 0 1 0 -1 -1 -1 -1 -0 -0 -0 -0 0 0 1 1 0 0 -0 -1 -1 -1 -1 -1 -1 -1 -1 -1 -1 -1 -1 -1 -1 -1 -1 -1 -1 -1 -1 -1 -1 -1 -1 -1 -1 -1 -1 -1
Height
1547 1547 1547 1547 1547 1547 1547 1547 1548 1548 1548 1548 1548 1548 1548 1548 1548 1548 1548 1548 1548 1548 1548 1548 1548 1548 1548 1548 1548 1548 1548 1548 1548 1549 1549 1549 1549 1549 1549 1549 1549 1549 1549 1549 1549 1549 1549 1549 1549 1549 1549 1549 1549 1548 1548 1548 1547 1547 1547 1547 1547 1547 1547 1547 1547 1547 1547 1547 1548 1548 1547 1547 1546 1546 1546 1546 1545 1545 1544 1544 1544 1543 1543 1543 1542 1542 1542 1542 1542 1541 1541 1541 1541 1541 1541 1541 1541 1540 1539 1539 1539 1538 1538
1547 1547 1547 1547 1547 1548 1548 1548 1548 1548 1548 1548 1548 1548 1548 1548 1548 1548 1548 1548 1548 1548 1548 1549 1549 1549 1549 1549 1549 1549 1549 1549 1549 1549 1549 1549 1549 1549 1549 1549 1549 1549 1549 1549 1549 1549 1549 1549 1549 1549 1549 1549 1549 1548 1548 1548 1548 1547 1547 1547 1547 1547 1547 1547 1547 1547 1547 1547 1547 1547 1547 1547 1546 1546 1546 1546 1545 1545 1545 1544 1544 1543 1543 1543 1543 1542 1542 1542 1542 1541 1541 1541 1541 1541 1541 1541 1541 1540 1540 1539 1539 1539 1538
1547 1547 1548 1548 1548 1548 1548 1548 1548 1548 1548 1548 1548 1548 1548 1548 1549 1549 1549 1549 1549 1549 1549 1549 1549 1549 1549 1549 1549 1549 1549 1549 1549 1549 1549 1549 1549 1549 1549 1549 1549 1549 1549 1549 1549 1549 1549 1549 1549 1549 1549 1549 1549 1548 1548 1548 1548 1548 1548 1548 1548 1547 1547 1547 1547 1547 1547 1547 1547 1547 1547 1547 1546 1546 1546 1545 1545 1545 1544 1544 1544 1543 1543 1543 1542 1542 1542 1542 1542 1541 1541 1541 1541 1541 1540 1540 1540 1540 1540 1540 1539 1539 1539
1548 1548 1548 1548 1548 1548 1548 1548 1548 1549 1549 1549 1549 1549 1549 1549 1549 1549 1549 1549 1549 1549 1549 1549 1549 1549 1549 1549 1549 1549 1549 1549 1549 1549 1549 1549 1549 1549 1549 1549 1549 1549 1549 1549 1549 1549 1549 1549 1549 1549 1549 1549 1549 1549 1548 1548 1548 1548 1548 1548 1548 1547 1547 1547 1547 1547 1547 1547 1547 1547 1546 1546 1546 1546 1545 1545 1545 1544 1544 1544 1543 1543 1543 1542 1542 1542 1542 1542 1541 1541 1541 1541 1541 1541 1540 1540 1540 1540 1539 1539 1539 1539 1539
1548 1548 1548 1548 1549 1549 1549 1549 1549 1549 1549 1549 1549 1549 1549 1549 1549 1549 1549 1549 1549 1549 1549 1549 1549 1549 1549 1549 1549 1549 1549 1549 1549 1549 1549 1549 1550 1550 1550 1550 1550 1550 1549 1549 1549 1549 1549 1549 1549 1549 1549 1549 1549 1549 1548 1548 1548 1548 1548 1548 1548 1547 1547 1547 1547 1547 1547 1547 1547 1547 1546 1546 1546 1545 1545 1544 1544 1544 1543 1543 1543 1542 1542 1542 1542 1542 1541 1541 1541 1541 1541 1541 1541 1540 1540 1540 1540 1539 1539 1539 1539 1539 1539
1548 1549 1549 1549 1549 1549 1549 1549 1549 1549 1549 1549 1549 1549 1549 1549 1549 1549 1549 1549 1549 1549 1549 1549 1549 1549 1549 1549 1549 1549 1549 1549 1549 1550 1550 1550 1550 1550 1550 1550 1550 1550 1549 1549 1549 1549 1549 1549 1549 1549 1549 1549 1548 1548 1548 1548 1548 1548 1548 1547 1547 1547 1547 1547 1547 1547 1547 1547 1546 1546 1546 1546 1545 1545 1544 1544 1544 1543 1543 1543 1542 1542 1542 1542 1541 1541 1541 1541 1541 1541 1541 1540 1540 1540 1540 1540 1540 1539 1539 1539 1539 1538 1538
1549 1549 1549 1549 1549 1549 1549 1549 1549 1549 1549 1549 1549 1549 1549 1549 1549 1549 1549 1549 1549 1549 1549 1549 1549 1549 1549 1549 1549 1549 1549 1549 1549 1550 1550 1550 1550 1550 1550 1550 1549 1549 1549 1549 1549 1549 1549 1549 1549 1549 1548 1548 1548 1548 1548 1548 1548 1548 1547 1547 1547 1547 1547 1547 1547 1547 1546 1546 1546 1546 1546 1545 1545 1544 1544 1544 1543 1543 1543 1542 1542 1542 1542 1541 1541 1541 1541 1541 1541 1540 1540 1540 1540 1540 1540 1539 1539 1539 1539 1539 1538 1538 1538
1549 1549 1549 1549 1549 1549 1549 1549 1549 1549 1549 1549 1549 1549 1549 1549 1549 1549 1549 1549 1549 1549 1549 1549 1549 1549 1549 1549 1549 1549 1549 1549 1549 1549 1549 1549 1549 1549 1549 1549 1549 1549 1549 1549 1549 1549 1549 1549 1549 1548 1548 1548 1548 1548 1548 1548 1547 1547 1547 1547 1547 1547 1547 1546 1546 1546 1546 1546 1546 1546 1545 1545 1545 1544 1544 1543 1543 1543 1543 1542 1542 1542 1541 1541 1541 1541 1541 1540 1540 1540 1540 1540 1540 1539 1539 1539 1539 1539 1539 1538 1538 1538 1538
1549 1549 1549 1549 1549 1549 1549 1549 1549 1549 1549 1549 1549 1549 1549 1549 1549 1549 1549 1549 1549 1549 1549 1549 1549 1549 1549 1549 1549 1549 1549 1549 1549 1549 1549 1549 1549 1549 1549 1549 1549 1549 1549 1549 1549 1549 1549 1548 1548 1548 1548 1548 1548 1548 1547 1547 1547 1547 1547 1547 1547 1546 1546 1546 1546 1546 1546 1546 1546 1545 1545 1545 1544 1544 1543 1543 1543 1542 1542 1542 1542 1541 1541 1541 1541 1541 1540 1540 1540 1540 1539 1539 1539 1539 1539 1539 1538 1538 1538 1538 1538 1538 1538
1549 1550 1550 1550 1550 1550 1550 1550 1550 1550 1550 1549 1549 1549 1550 1549 1549 1549 1549 1549 1549 1549 1549 1549 1549 1549 1549 1549 1549 1549 1549 1549 1549 1549 1549 1549 1549 1549 1549 1549 1549 1549 1549 1549 1549 1548 1548 1548 1548 1548 1548 1548 1547 1547 1547 1547 1547 1547 1547 1547 1546 1546 1546 1546 1546 1546 1546 1546 1546 1545 1545 1544 1544 1543 1543 1543 1542 1542 1542 1541 1541 1541 1541 1541 1540 1540 1540 1540 1540 1539 1539 1539 1539 1539 1538 1538 1538 1538 1538 1538 1538 1537 1537
1550 1550 1550 1550 1550 1550 1550 1550 1550 1550 1550 1550 1550 1550 1550 1550 1549 1549 1549 1549 1549 1549 1549 1549 1549 1549 1549 1549 1549 1549 1549 1549 1549 1549 1549 1549 1549 1549 1549 1549 1549 1549 1549 1548 1548 1548 1548 1548 1548 1548 1548 1548 1547 1547 1547 1547 1547 1547 1546 1546 1546 1546 1546 1546 1546 1546 1545 1545 1545 1545 1544 1544 1544 1543 1543 1542 1542 1542 1541 1541 1541 1541 1540 1540 1540 1540 1540 1540 1540 1540 1539 1539 1539 1538 1538 1538 1538 1538 1538 1537 1537 1537 1537
1550 1550 1550 1550 1550 1550 1550 1550 1550 1550 1550 1550 1550 1550 1550 1550 1550 1550 1549 1549 1549 1549 1549 1549 1549 1549 1549 1549 1549 1549 1549 1549 1549 1549 1549 1549 1549 1549 1549 1549 1549 1549 1548 1548 1548 1548 1548 1548 1548 1548 1548 1547 1547 1547 1547 1547 1546 1546 1546 1546 1546 1546 1546 1546 1546 1545 1545 1545 1545 1544 1544 1544 1543 1543 1542 1542 1542 1541 1541 1541 1541 1540 1540 1540 1540 1540 1539 1539 1539 1539 1539 1539 1538 1538 1538 1538 1537 1537 1537 1537 1537 1537 1537
1550 1550 1550 1550 1550 1550 1551 1551 1550 1550 1550 1550 1550 1550 1550 1550 1550 1550 1549 1549 1549 1549 1549 1549 1549 1549 1549 1549 1549 1549 1549 1549 1549 1549 1549 1549 1549 1549 1549 1549 1549 1549 1548 1548 1548 1548 1548 1548 1548 1547 1547 1547 1547 1547 1547 1546 1546 1546 1546 1546 1546 1546 1546 1546 1546 1545 1545 1544 1544 1544 1544 1543 1543 1542 1542 1541 1541 1541 1541 1540 1540 1540 1540 1539 1539 1539 1539 1539 1539 1538 1538 1538 1538 1538 1537 1537 1537 1537 1537 1537 1537 1537 1537
1550 1550 1550 1550 1550 1551 1551 1551 1551 1550 1550 1550 1550 1550 1550 1550 1550 1550 1550 1549 1549 1549 1549 1549 1549 1549 1549 1549 1549 1549 1549 1549 1549 1549 1549 1549 1549 1549 1549 1549 1549 1549 1549 1548 1548 1548 1548 1548 1547 1547 1547 1547 1547 1547 1546 1546 1546 1546 1546 1546 1545 1545 1545 1545 1545 1545 1544 1544 1544 1543 1543 1543 1542 1542 1541 1541 1541 1541 1540 1540 1540 1540 1539 1539 1539 1539 1539 1538 1538 1538 1537 1537 1537 1537 1537 1536 1536 1536 1536 1536 1536 1536 1536
1550 1550 1550 1550 1551 1551 1551 1551 1551 1550 1550 1550 1550 1550 1550 1550 1550 1550 1550 1550 1549 1549 1549 1549 1549 1549 1549 1549 1549 1549 1549 1549 1549 1549 1549 1549 1549 1549 1549 1549 1549 1549 1548 1548 1548 1548 1548 1547 1547 1547 1547 1547 1546 1546 1546 1546 1546 1546 1545 1545 1545 1545 1545 1545 1545 1545 1544 1544 1543 1543 1542 1542 1542 1541 1541 1541 1541 1540 1540 1540 1539 1539 1539 1539 1539 1538 1538 1538 1538 1537 1537 1537 1536 1536 1536 1536 1536 1536 1536 1536 1536 1536 1535
1550 1550 1550 1550 1551 1551 1551 1551 1551 1550 1550 1550 1550 1550 1550 1550 1550 1550 1550 1550 1549 1549 1549 1549 1549 1549 1549 1549 1549 1549 1549 1549 1549 1549 1549 1549 1549 1549 1549 1549 1549 1549 1548 1548 1548 1548 1547 1547 1547 1547 1546 1546 1546 1546 1546 1546 1546 1545 1545 1545 1545 1545 1545 1545 1545 1544 1544 1543 1543 1542 1542 1542 1541 1541 1541 1541 1540 1540 1540 1540 1539 1539 1539 1539 1538 1538 1538 1538 1537 1537 1537 1536 1536 1536 1536 1536 1536 1535 1535 1535 1535 1535 1535
1550 1550 1550 1550 1550 1550 1550 1550 1550 1550 1550 1550 1550 1550 1550 1550 1550 1550 1550 1550 1549 1549 1549 1549 1549 1549 1549 1549 1549 1549 1549 1549 1549 1549 1549 1549 1549 1549 1549 1549 1549 1548 1548 1548 1548 1547 1547 1547 1547 1546 1546 1546 1546 1546 1546 1545 1545 1545 1545 1545 1545 1544 1544 1544 1544 1544 1543 1543 1542 1542 1542 1541 1541 1541 1541 1540 1540 1540 1540 1539 1539 1539 1539 1538 1538 1538 1538 1537 1537 1537 1537 1536 1536 1536 1536 1536 1535 1535 1535 1535 1534 1534 1534
1550 1550 1550 1550 1550 1550 1550 1550 1550 1550 1550 1550 1550 1550 1550 1550 1550 1550 1550 1550 1549 1550 1550 1549 1549 1549 1549 1549 1549 1549 1549 1549 1549 1549 1549 1549 1549 1549 1549 1549 1549 1548 1548 1548 1548 1547 1547 1547 1546 1546 1546 1546 1546 1546 1545 1545 1545 1545 1545 1544 1544 1544 1544 1544 1544 1544 1543 1542 1542 1542 1541 1541 1541 1541 1540 1540 1540 1540 1539 1539 1539 1539 1539 1538 1538 1538 1538 1537 1537 1537 1536 1536 1536 1535 1535 1535 1535 1534 1534 1534 1534 1534 1533
1549 1549 1549 1550 1550 1550 1550 1550 1550 1550 1550 1550 1550 1550 1550 1550 1550 1550 1550 1550 1550 1550 1550 1549 1549 1549 1549 1549 1549 1549 1549 1549 1549 1549 1549 1549 1549 1549 1549 1549 1548 1548 1548 1548 1547 1547 1547 1547 1546 1546 1546 1546 1545 1545 1545 1545 1545 1545 1544 1544 1544 1544 1544 1544 1544 1543 1543 1542 1542 1541 1541 1541 1541 1540 1540 1540 1540 1539 1539 1539 1539 1539 1539 1538 1538 1538 1537 1537 1537 1536 1536 1536 1535 1535 1534 1534 1534 1534 1534 1533 1533 1533 1533
1549 1549 1549 1549 1549 1550 1550 1550 1550 1550 1550 1550 1550 1550 1550 1550 1550 1550 1550 1550 1550 1550 1550 1549 1549 1549 1549 1549 1549 1549 1549 1549 1549 1549 1549 1549 1549 1549 1548 1548 1548 1548 1548 1547 1547 1547 1547 1546 1546 1546 1546 1545 1545 1545 1545 1545 1544 1544 1544 1544 1544 1544 1544 1543 1543 1543 1543 1542 1541 1541 1541 1541 1541 1540 1540 1540 1540 1539 1539 1539 1539 1539 1538 1538 1538 1537 1537 1536 1536 1536 1535 1535 1535 1534 1534 1534 1534 1533 1533 1533 1533 1532 1532
1548 1548 1549 1549 1549 1549 1550 1550 1550 1550 1550 1550 1550 1550 1550 1550 1550 1550 1550 1550 1550 1550 1550 1549 1549 1549 1549 1549 1549 1549 1549 1549 1549 1549 1549 1549 1549 1548 1548 1548 1548 1547 1547 1547 1547 1547 1546 1546 1546 1546 1546 1545 1545 1545 1544 1544 1544 1544 1544 1544 1544 1543 1543 1543 1543 1543 1542 1542 1541 1541 1541 1541 1540 1540 1540 1540 1539 1539 1539 1539 1539 1539 1538 1538 1537 1537 1536 1536 1536 1535 1535 1535 1535 1534 1534 1533 1533 1533 1533 1532 1532 1532 1532
1548 1548 1548 1548 1549 1549 1549 1550 1550 1550 1550 1550 1550 1550 1550 1550 1550 1550 1550 1550 1550 1550 1550 1550 1549 1549 1549 1549 1549 1549 1549 1549 1549 1549 1549 1549 1548 1548 1548 1548 1547 1547 1547 1547 1546 1546 1546 1546 1546 1545 1545 1545 1545 1544 1544 1544 1544 1544 1544 1543 1543 1543 1543 1543 1542 1542 1542 1541 1541 1541 1541 1541 1540 1540 1540 1540 1540 1539 1539 1539 1539 1538 1538 1537 1537 1537 1536 1536 1536 1535 1535 1535 1534 1534 1534 1533 1533 1533 1532 1532 1532 1532 1531
1547 1548 1548 1548 1548 1549 1549 1549 1550 1550 1550 1550 1550 1550 1550 1550 1550 1550 1550 1550 1550 1550 1550 1550 1549 1549 1549 1549 1549 1549 1549 1549 1549 1549 1548 1548 1548 1548 1547 1547 1547 1547 1546 1546 1546 1546 1546 1546 1545 1545 1545 1545 1544 1544 1544 1544 1544 1543 1543 1543 1543 1543 1543 1542 1542 1542 1542 1541 1541 1541 1541 1541 1540 1540 1540 1539 1539 1539 1539 1539 1538 1538 1538 1537 1537 1536 1536 1536 1535 1535 1535 1534 1534 1534 1533 1533 1533 1532 1532 1532 1531 1531 1531
1547 1548 1548 1548 1548 1548 1549 1549 1549 1549 1550 1550 1549 1549 1549 1550 1549 1549 1550 1550 1550 1550 1550 1549 1549 1549 1549 1549 1549 1549 1549 1548 1548 1548 1548 1548 1548 1547 1547 1547 1547 1546 1546 1546 1546 1546 1546 1545 1545 1545 1545 1544 1544 1544 1544 1544 1543 1543 1543 1543 1543 1543 1542 1542 1542 1542 1542 1541 1541 1541 1541 1540 1540 1540 1540 1539 1539 1539 1538 1538 1538 1538 1537 1537 1536 1536 1536 1536 1535 1535 1534 1534 1534 1533 1533 1533 1532 1532 1532 1531 1531 1531 1531
1547 1547 1547 1548 1548 1548 1548 1549 1549 1549 1549 1549 1549 1549 1549 1549 1549 1549 1549 1549 1549 1549 1549 1549 1549 1549 1549 1549 1549 1548 1548 1548 1548 1548 1548 1547 1547 1547 1547 1547 1546 1546 1546 1546 1546 1546 1545 1545 1545 1544 1544 1544 1544 1544 1543 1543 1543 1543 1543 1543 1543 1542 1542 1542 1542 1542 1541 1541 1541 1541 1541 1540 1540 1540 1539 1539 1539 1538 1538 1538 1538 1537 1537 1537 1536 1536 1536 1535 1535 1535 1534 1534 1533 1533 1533 1532 1532 1532 1531 1531 1531 1530 1530
1547 1547 1547 1547 1548 1548 1548 1548 1549 1549 1549 1549 1549 1549 1549 1549 1549 1549 1549 1549 1549 1549 1549 1549 1549 1549 1549 1549 1548 1548 1548 1548 1548 1548 1547 1547 1547 1547 1547 1546 1546 1546 1546 1546 1545 1545 1545 1545 1544 1544 1544 1544 1544 1543 1543 1543 1543 1543 1543 1543 1542 1542 1542 1542 1542 1541 1541 1541 1541 1541 1540 1540 1540 1540 1539 1539 1538 1538 1538 1538 1538 1537 1537 1537 1536 1536 1535 1535 1535 1534 1534 1533 1533 1533 1532 1532 1532 1531 1531 1531 1530 1530 1530
1546 1546 1547 1547 1547 1548 1548 1548 1548 1549 1549 1549 1549 1549 1549 1549 1549 1549 1549 1549 1549 1549 1549 1549 1549 1548 1548 1548 1548 1548 1548 1548 1548 1547 1547 1547 1547 1546 1546 1546 1546 1546 1545 1545 1545 1545 1545 1544 1544 1544 1544 1543 1543 1543 1543 1543 1543 1543 1543 1542 1542 1542 1542 1542 1541 1541 1541 1541 1541 1541 1540 1540 1540 1539 1539 1539 1538 1538 1538 1538 1537 1537 1537 1536 1536 1536 1535 1535 1534 1534 1533 1533 1533 1532 1532 1532 1531 1531 1531 1530 1530 1530 1529
1546 1546 1546 1547 1547 1547 1547 1548 1548 1548 1548 1548 1549 1549 1549 1549 1549 1549 1549 1549 1549 1548 1548 1548 1548 1548 1548 1548 1548 1548 1548 1547 1547 1547 1547 1547 1546 1546 1546 1546 1545 1545 1545 1545 1545 1544 1544 1544 1544 1544 1543 1543 1543 1543 1543 1543 1543 1543 1542 1542 1542 1542 1542 1542 1541 1541 1541 1541 1541 1540 1540 1540 1539 1539 1539 1538 1538 1538 1538 1537 1537 1537 1537 1536 1536 1535 1535 1534 1534 1534 1533 1533 1532 1532 1532 1531 1531 1531 1530 1530 1530 1529 1529
1546 1546 1546 1546 1546 1547 1547 1547 1548 1548 1548 1548 1548 1548 1549 1549 1549 1548 1548 1548 1548 1548 1548 1548 1548 1548 1548 1548 1548 1548 1547 1547 1547 1547 1547 1546 1546 1546 1546 1545 1545 1545 1545 1545 1544 1544 1544 1544 1544 1543 1543 1543 1543 1543 1543 1543 1543 1543 1542 1542 1542 1542 1542 1541 1541 1541 1541 1541 1540 1540 1540 1540 1539 1539 1539 1538 1538 1538 1537 1537 1537 1536 1536 1536 1535 1535 1534 1534 1534 1533 1533 1532 1532 1532 1531 1531 1531 1530 1530 1530 1529 1529 1528
1545 1545 1546 1546 1546 1546 1546 1547 1547 1547 1548 1548 1548 1548 1548 1548 1548 1548 1548 1548 1548 1548 1548 1548 1548 1548 1547 1547 1547 1547 1547 1547 1547 1547 1546 1546 1546 1546 1545 1545 1545 1545 1544 1544 1544 1544 1544 1544 1543 1543 1543 1543 1543 1543 1543 1543 1543 1542 1542 1542 1542 1542 1541 1541 1541 1541 1541 1541 1540 1540 1540 1540 1539 1539 1539 1538 1538 1538 1537 1537 1536 1536 1536 1536 1535 1535 1534 1534 1533 1533 1533 1532 1532 1531 1531 1531 1530 1530 1530 1529 1529 1528 1527
1545 1545 1545 1545 1546 1546 1546 1546 1546 1547 1547 1547 1547 1548 1548 1548 1548 1548 1548 1548 1548 1548 1547 1547 1547 1547 1547 1547 1547 1547 1547 1547 1547 1547 1546 1546 1546 1546 1545 1545 1545 1545 1544 1544 1544 1544 1544 1544 1543 1543 1543 1543 1543 1543 1543 1543 1543 1542 1542 1542 1542 1542 1541 1541 1541 1541 1541 1540 1540 1540 1540 1540 1539 1539 1539 1538 1538 1537 1537 1537 1536 1536 1536 1535 1535 1534 1534 1534 1533 1533 1532 1532 1532 1531 1531 1530 1530 1529 1529 1528 1528 1527 1527
1544 1544 1545 1545 1545 1545 1545 1546 1546 1546 1546 1547 1547 1547 1547 1547 1547 1548 1548 1548 1548 1547 1547 1547 1547 1547 1547 1547 1547 1547 1547 1547 1547 1547 1546 1546 1546 1546 1545 1545 1545 1545 1544 1544 1544 1544 1544 1543 1543 1543 1543 1543 1543 1543 1543 1543 1542 1542 1542 1542 1542 1541 1541 1541 1541 1541 1541 1540 1540 1540 1540 1539 1539 1539 1539 1538 1538 1537 1537 1537 1536 1536 1535 1535 1535 1534 1534 1533 1533 1533 1532 1532 1531 1531 1530 1530 1529 1529 1528 1528 1527 1527 1526
1544 1544 1544 1544 1544 1545 1545 1545 1546 1546 1546 1546 1546 1547 1547 1547 1547 1547 1547 1547 1547 1547 1547 1547 1547 1547 1547 1547 1547 1547 1547 1547 1546 1546 1546 1546 1546 1545 1545 1545 1545 1545 1544 1544 1544 1544 1544 1543 1543 1543 1543 1543 1543 1543 1543 1543 1542 1542 1542 1542 1542 1542 1541 1541 1541 1541 1540 1540 1540 1540 1539 1539 1539 1539 1538 1538 1538 1537 1537 1536 1536 1536 1535 1535 1534 1534 1533 1533 1533 1532 1532 1531 1531 1530 1530 1529 1529 1528 1528 1527 1527 1526 1526
1543 1543 1543 1544 1544 1544 1544 1545 1545 1546 1546 1546 1546 1546 1546 1546 1546 1547 1547 1547 1547 1547 1547 1547 1547 1547 1547 1547 1546 1546 1546 1546 1546 1546 1546 1546 1546 1545 1545 1545 1545 1545 1544 1544 1544 1544 1543 1543 1543 1543 1543 1543 1543 1543 1543 1542 1542 1542 1542 1542 1542 1542 1541 1541 1541 1541 1540 1540 1540 1539 1539 1539 1539 1538 1538 1538 1537 1537 1537 1536 1536 1536 1535 1535 1534 1533 1533 1532 1532 1532 1531 1531 1530 1530 1529 1529 1528 1528 1527 1527 1526 1526 1525
1542 1543 1543 1543 1543 1544 1544 1544 1545 1545 1545 1545 1546 1546 1546 1546 1546 1546 1546 1546 1546 1546 1547 1547 1547 1547 1547 1546 1546 1546 1546 1546 1546 1546 1546 1546 1546 1545 1545 1545 1545 1544 1544 1544 1544 1543 1543 1543 1543 1543 1543 1543 1543 1543 1542 1542 1542 1542 1542 1542 1542 1542 1541 1541 1541 1541 1540 1540 1540 1539 1539 1539 1538 1538 1538 1538 1537 1537 1536 1536 1536 1535 1535 1534 1534 1533 1532 1532 1531 1531 1531 1530 1530 1529 1528 1528 1527 1527 1526 1526 1526 1525 1525
1542 1542 1542 1543 1543 1543 1544 1544 1545 1545 1545 1545 1545 1545 1546 1546 1546 1546 1546 1546 1546 1546 1546 1546 1546 1546 1546 1546 1546 1546 1546 1546 1546 1546 1546 1546 1545 1545 1545 1545 1545 1544 1544 1544 1544 1543 1543 1543 1543 1543 1543 1542 1542 1542 1542 1542 1542 1542 1542 1542 1542 1541 1541 1541 1541 1540 1540 1540 1539 1539 1539 1538 1538 1538 1538 1537 1537 1536 1536 1536 1535 1535 1534 1534 1533 1532 1532 1531 1531 1530 1530 1529 1529 1528 1528 1527 1527 1526 1526 1526 1525 1524 1524
1541 1541 1542 1542 1542 1543 1543 1544 1544 1544 1545 1545 1545 1545 1545 1545 1546 1546 1546 1546 1546 1546 1546 1546 1546 1546 1546 1546 1546 1546 1546 1546 1546 1546 1546 1545 1545 1545 1545 1545 1545 1544 1544 1544 1543 1543 1543 1543 1543 1543 1542 1542 1542 1542 1542 1542 1542 1542 1542 1542 1542 1541 1541 1541 1541 1540 1540 1540 1539 1539 1539 1538 1538 1538 1537 1537 1536 1536 1536 1535 1535 1534 1534 1533 1533 1532 1531 1531 1530 1530 1529 1529 1528 1528 1527 1527 1526 1526 1525 1525 1524 1524 1523
1540 1541 1541 1541 1542 1542 1543 1543 1544 1544 1544 1544 1544 1545 1545 1545 1545 1546 1546 1546 1546 1546 1546 1546 1546 1546 1546 1546 1546 1546 1546 1546 1546 1546 1546 1545 1545 1545 1545 1545 1544 1544 1544 1544 1543 1543 1543 1543 1543 1542 1542 1543 1543 1543 1543 1542 1542 1542 1542 1542 1542 1541 1541 1541 1541 1540 1540 1540 1539 1539 1539 1538 1538 1537 1537 1537 1536 1536 1535 1535 1534 1534 1533 1533 1532 1532 1531 1531 1530 1529 1529 1528 1528 1527 1526 1526 1526 1525 1525 1524 1524 1523 1523
1540 1540 1541 1541 1541 1542 1542 1543 1543 1543 1544 1544 1544 1544 1544 1545 1545 1545 1546 1546 1546 1546 1546 1546 1546 1546 1546 1546 1546 1546 1546 1546 1546 1546 1545 1545 1545 1545 1545 1545 1544 1544 1544 1543 1543 1543 1543 1543 1543 1543 1543 1543 1543 1543 1543 1542 1542 1542 1542 1542 1541 1541 1541 1541 1541 1540 1540 1539 1539 1539 1538 1538 1538 1537 1537 1536 1536 1536 1535 1534 1534 1533 1533 1532 1532 1531 1531 1530 1529 1529 1528 1527 1527 1526 1526 1526 1525 1525 1524 1524 1523 1522 1522
1539 1540 1540 1541 1541 1541 1542 1542 1543 1543 1543 1543 1543 1544 1544 1545 1545 1545 1545 1545 1545 1545 1545 1545 1545 1546 1546 1546 1546 1546 1546 1546 1546 1546 1546 1545 1545 1545 1545 1545 1544 1544 1544 1543 1543 1543 1543 1543 1543 1543 1543 1543 1543 1543 1543 1542 1542 1542 1542 1541 1541 1541 1541 1541 1540 1540 1540 1539 1539 1539 1538 1538 1537 1537 1537 1536 1536 1535 1535 1534 1533 1533 1532 1532 1531 1531 1530 1529 1529 1528 1527 1527 1526 1526 1525 1525 1524 1524 1523 1523 1522 1522 1521
1538 1539 1540 1540 1540 1541 1541 1542 1542 1542 1543 1543 1543 1543 1544 1544 1545 1545 1545 1545 1545 1545 1545 1545 1545 1545 1545 1546 1546 1546 1546 1546 1546 1546 1546 1545 1545 1545 1545 1544 1544 1544 1544 1543 1543 1543 1543 1543 1543 1543 1543 1543 1543 1543 1543 1542 1542 1542 1541 1541 1541 1541 1541 1540 1540 1540 1539 1539 1539 1538 1538 1538 1537 1537 1536 1536 1535 1535 1534 1534 1533 1532 1532 1531 1531 1530 1529 1529 1528 1527 1527 1526 1526 1525 1525 1524 1524 1523 1523 1522 1521 1521 1521
1538 1538 1539 1539 1540 1540 1541 1541 1541 1542 1542 1542 1543 1543 1544 1544 1544 1544 1544 1544 1544 1545 1545 1545 1545 1545 1545 1545 1545 1545 1546 1546 1546 1546 1545 1545 1545 1545 1545 1544 1544 1544 1544 1543 1543 1543 1543 1543 1543 1543 1543 1543 1543 1543 1542 1542 1542 1541 1541 1541 1541 1541 1540 1540 1540 1539 1539 1539 1538 1538 1537 1537 1537 1536 1536 1535 1535 1534 1534 1533 1532 1532 1531 1531 1530 1529 1529 1528 1527 1527 1526 1526 1525 1524 1524 1523 1523 1522 1522 1521 1521 1521 1520
1537 1538 1538 1539 1539 1540 1540 1541 1541 1541 1542 1542 1542 1543 1543 1543 1543 1544 1544 1544 1544 1544 1545 1545 1545 1545 1545 1545 1545 1545 1545 1545 1545 1545 1545 1545 1545 1545 1545 1544 1544 1544 1544 1543 1543 1543 1543 1543 1543 1543 1543 1543 1543 1543 1542 1542 1541 1541 1541 1541 1541 1540 1540 1540 1539 1539 1538 1538 1538 1537 1537 1536 1536 1536 1535 1535 1534 1534 1533 1532 1532 1531 1531 1530 1529 1529 1528 1527 1526 1526 1526 1525 1524 1524 1523 1522 1522 1521 1521 1521 1520 1520 1519
1536 1537 1538 1539 1539 1539 1540 1540 1541 1541 1541 1541 1542 1542 1543 1543 1543 1543 1543 1544 1544 1544 1544 1545 1545 1545 1545 1545 1545 1545 1545 1545 1545 1545 1545 1545 1545 1545 1544 1544 1544 1544 1544 1543 1543 1543 1543 1543 1543 1543 1543 1543 1543 1542 1542 1541 1541 1541 1541 1541 1540 1540 1540 1539 1539 1538 1538 1537 1537 1536 1536 1536 1535 1535 1535 1534 1534 1533 1532 1532 1531 1531 1530 1529 1529 1528 1527 1526 1526 1525 1525 1524 1524 1523 1522 1522 1521 1521 1521 1520 1520 1519 1519
1536 1537 1537 1538 1538 1539 1539 1540 1540 1540 1541 1541 1541 1542 1542 1542 1542 1543 1543 1543 1544 1544 1544 1544 1545 1545 1545 1545 1545 1545 1545 1545 1545 1545 1545 1545 1545 1544 1544 1544 1544 1544 1544 1543 1543 1543 1543 1543 1543 1543 1542 1542 1542 1542 1541 1541 1541 1541 1540 1540 1540 1540 1539 1539 1538 1538 1537 1537 1536 1536 1535 1535 1535 1534 1534 1533 1533 1532 1532 1531 1531 1530 1530 1529 1528 1528 1527 1526 1526 1525 1524 1524 1523 1522 1522 1521 1521 1521 1520 1519 1519 1519 1518
1535 1536 1537 1537 1538 1538 1539 1539 1539 1540 1540 1541 1541 1541 1541 1542 1542 1542 1543 1543 1543 1544 1544 1544 1544 1544 1545 1544 1544 1544 1545 1545 1545 1545 1545 1545 1545 1544 1544 1544 1544 1544 1544 1543 1543 1543 1543 1542 1542 1542 1542 1542 1542 1542 1541 1541 1541 1540 1540 1540 1539 1539 1539 1538 1538 1537 1537 1536 1536 1535 1535 1534 1534 1533 1533 1532 1532 1532 1531 1531 1530 1530 1529 1528 1528 1527 1526 1526 1525 1525 1524 1523 1523 1522 1521 1521 1521 1520 1519 1519 1518 1518 1518
1535 1536 1536 1536 1537 1537 1538 1538 1538 1539 1539 1540 1540 1541 1541 1541 1541 1542 1542 1543 1543 1543 1544 1544 1544 1544 1544 1544 1544 1544 1544 1544 1544 1544 1544 1544 1544 1544 1544 1544 1544 1544 1543 1543 1543 1543 1543 1542 1542 1542 1542 1542 1541 1541 1541 1541 1540 1540 1540 1539 1539 1539 1538 1538 1537 1537 1536 1536 1535 1535 1534 1533 1533 1532 1532 1531 1531 1531 1531 1530 1530 1529 1528 1528 1527 1526 1526 1525 1525 1524 1523 1523 1522 1521 1521 1521 1520 1520 1519 1519 1518 1518 1517
1534 1535 1535 1536 1536 1537 1537 1537 1538 1538 1539 1539 1540 1540 1540 1541 1541 1542 1542 1542 1543 1543 1543 1543 1544 1544 1544 1544 1544 1544 1544 1544 1544 1544 1544 1544 1544 1544 1544 1544 1543 1543 1543 1543 1543 1543 1542 1542 1542 1542 1541 1541 1541 1541 1541 1540 1540 1540 1539 1539 1538 1538 1537 1537 1536 1536 1536 1535 1534 1534 1533 1533 1532 1532 1531 1531 1531 1530 1530 1529 1528 1528 1527 1527 1526 1526 1525 1525 1524 1523 1523 1522 1521 1521 1521 1520 1520 1519 1519 1518 1517 1517 1517
1533 1534 1534 1535 1536 1536 1536 1536 1537 1537 1538 1538 1539 1539 1540 1541 1541 1541 1542 1542 1542 1542 1543 1543 1543 1543 1543 1543 1544 1544 1544 1544 1544 1544 1544 1544 1544 1543 1543 1543 1543 1543 1543 1543 1542 1542 1542 1542 1542 1541 1541 1541 1541 1541 1540 1540 1539 1539 1538 1538 1538 1537 1537 1536 1536 1535 1535 1534 1534 1533 1533 1532 1532 1531 1531 1530 1530 1529 1528 1528 1527 1527 1526 1526 1525 1525 1524 1524 1523 1522 1522 1521 1521 1520 1520 1519 1519 1518 1518 1517 1517 1516 1516
1532 1533 1533 1534 1535 1535 1535 1536 1536 1537 1537 1538 1539 1539 1540 1540 1540 1541 1541 1541 1542 1542 1542 1542 1543 1543 1543 1543 1543 1543 1543 1543 1543 1543 1543 1543 1543 1543 1543 1543 1543 1543 1543 1542 1542 1542 1542 1541 1541 1541 1541 1541 1540 1540 1540 1539 1539 1538 1538 1537 1537 1536 1536 1536 1535 1535 1534 1534 1533 1533 1532 1531 1531 1531 1530 1530 1529 1528 1527 1527 1526 1526 1525 1525 1524 1524 1523 1523 1522 1522 1521 1521 1520 1520 1519 1519 1518 1518 1517 1517 1516 1516 1515
1531 1532 1532 1533 1533 1534 1534 1535 1536 1536 1537 1538 1538 1538 1539 1539 1540 1540 1540 1541 1541 1541 1542 1542 1542 1542 1543 1543 1543 1543 1543 1543 1543 1543 1543 1543 1543 1543 1543 1543 1542 1542 1542 1542 1542 1541 1541 1541 1541 1541 1540 1540 1540 1539 1539 1538 1538 1537 1537 1537 1536 1536 1536 1535 1535 1534 1534 1533 1532 1532 1531 1531 1531 1530 1529 1529 1528 1527 1527 1526 1525 1525 1524 1524 1523 1522 1522 1522 1521 1521 1521 1520 1519 1519 1518 1518 1517 1517 1516 1516 1516 1515 1514
1530 1531 1531 1532 1532 1533 1534 1534 1535 1536 1536 1537 1537 1538 1538 1538 1539 1539 1540 1540 1541 1541 1541 1541 1542 1542 1542 1542 1542 1542 1542 1542 1542 1542 1542 1542 1542 1542 1542 1542 1542 1542 1542 1541 1541 1541 1541 1540 1540 1540 1540 1539 1539 1539 1538 1538 1537 1537 1536 1536 1536 1535 1535 1534 1534 1533 1533 1532 1532 1531 1531 1531 1530 1529 1529 1528 1527 1527 1526 1525 1525 1524 1523 1523 1522 1521 1521 1521 1520 1520 1520 1519 1519 1518 1518 1517 1517 1516 1516 1515 1515 1514 1514
1529 1530 1531 1531 1532 1532 1533 1533 1534 1535 1536 1536 1537 1537 1537 1538 1538 1538 1539 1540 1540 1540 1541 1541 1541 1541 1541 1542 1542 1542 1542 1542 1542 1542 1542 1542 1542 1542 1542 1542 1541 1541 1541 1541 1541 1540 1540 1540 1539 1539 1539 1539 1538 1538 1538 1537 1537 1536 1536 1536 1535 1535 1534 1534 1533 1533 1532 1532 1531 1531 1530 1530 1529 1529 1528 1527 1526 1526 1525 1524 1524 1523 1522 1522 1521 1521 1520 1520 1519 1519 1518 1518 1518 1517 1517 1516 1516 1516 1515 1514 1514 1513 1512
1528 1529 1530 1530 1531 1531 1532 1533 1533 1534 1535 1536 1536 1536 1537 1537 1537 1538 1538 1539 1539 1540 1540 1540 1541 1541 1541 1541 1541 1541 1541 1541 1541 1541 1541 1541 1541 1541 1541 1541 1541 1541 1541 1541 1540 1540 1539 1539 1539 1538 1538 1538 1538 1537 1537 1536 1536 1536 1536 1535 1535 1534 1534 1533 1533 1532 1532 1531 1531 1530 1530 1529 1528 1528 1527 1526 1526 1525 1524 1524 1523 1522 1521 1521 1520 1520 1519 1519 1518 1518 1517 1517 1516 1516 1516 1516 1515 1515 1514 1513 1513 1512 1511
1527 1528 1529 1530 1530 1531 1531 1532 1533 1533 1534 1535 1535 1536 1536 1536 1537 1537 1538 1538 1539 1539 1539 1540 1540 1540 1540 1540 1541 1541 1541 1541 1541 1541 1541 1541 1541 1541 1540 1540 1540 1540 1540 1540 1539 1539 1538 1538 1538 1538 1537 1537 1537 1536 1536 1536 1536 1535 1535 1535 1534 1534 1533 1533 1532 1531 1531 1531 1530 1529 1529 1528 1528 1527 1526 1526 1525 1524 1524 1523 1522 1521 1521 1520 1519 1519 1518 1518 1517 1517 1516 1516 1516 1515 1515 1515 1514 1514 1513 1512 1512 1511 1511
1526 1527 1528 1529 1529 1530 1531 1531 1532 1532 1533 1534 1535 1535 1536 1536 1536 1537 1537 1538 1538 1539 1539 1539 1539 1539 1540 1540 1540 1540 1540 1540 1540 1540 1540 1540 1540 1540 1540 1540 1539 1539 1539 1538 1538 1538 1538 1537 1537 1537 1536 1536 1536 1536 1535 1535 1535 1535 1535 1534 1534 1533 1533 1532 1531 1531 1531 1530 1529 1529 1528 1528 1527 1526 1526 1525 1524 1523 1523 1522 1521 1521 1520 1519 1519 1518 1517 1517 1516 1516 1515 1515 1514 1514 1514 1513 1513 1512 1512 1511 1511 1510 1510
1526 1526 1527 1528 1528 1529 1530 1530 1531 1532 1532 1533 1534 1534 1535 1536 1536 1536 1537 1537 1537 1538 1538 1538 1539 1539 1539 1539 1539 1539 1539 1539 1539 1539 1539 1539 1539 1539 1539 1539 1538 1538 1538 1537 1537 1537 1537 1537 1536 1536 1536 1535 1535 1535 1535 1535 1534 1534 1534 1534 1533 1533 1532 1532 1531 1531 1530 1529 1529 1528 1527 1527 1526 1526 1525 1524 1524 1523 1522 1521 1521 1520 1519 1519 1518 1517 1517 1516 1515 1515 1514 1514 1513 1513 1512 1512 1512 1511 1511 1510 1509 1509 1508
1525 1525 1526 1527 1527 1528 1529 1529 1530 1531 1531 1532 1533 1534 1534 1535 1535 1535 1536 1536 1537 1537 1537 1538 1538 1538 1538 1538 1538 1538 1538 1538 1538 1538 1538 1538 1538 1538 1538 1538 1538 1537 1537 1537 1537 1536 1536 1536 1536 1536 1535 1535 1534 1534 1534 1534 1534 1533 1533 1533 1533 1532 1532 1531 1531 1530 1529 1529 1528 1527 1527 1526 1526 1525 1524 1524 1523 1522 1521 1521 1520 1519 1518 1518 1517 1516 1516 1515 1515 1514 1513 1513 1512 1512 1511 1511 1511 1510 1509 1509 1508 1508 1507
1523 1524 1525 1526 1526 1527 1527 1528 1529 1530 1531 1531 1532 1533 1533 1534 1534 1535 1535 1536 1536 1536 1537 1537 1537 1537 1537 1537 1537 1537 1537 1538 1538 1538 1538 1537 1537 1537 1537 1537 1537 1536 1536 1536 1536 1536 1536 1535 1535 1535 1535 1534 1533 1533 1533 1533 1533 1533 1533 1532 1532 1531 1531 1531 1530 1529 1529 1528 1527 1527 1526 1525 1525 1524 1523 1523 1522 1521 1521 1520 1519 1518 1518 1517 1516 1516 1515 1514 1513 1513 1512 1512 1511 1511 1510 1510 1509 1509 1508 1507 1507 1506 1506
1522 1523 1524 1525 1526 1526 1526 1527 1528 1529 1530 1530 1531 1531 1532 1532 1533 1534 1534 1535 1535 1536 1536 1536 1536 1536 1536 1536 1536 1536 1536 1537 1537 1537 1537 1537 1536 1536 1536 1536 1536 1536 1536 1536 1535 1535 1535 1535 1534 1534 1534 1533 1533 1532 1532 1532 1532 1532 1532 1531 1531 1531 1530 1530 1529 1528 1528 1527 1526 1526 1525 1525 1524 1523 1522 1521 1521 1520 1520 1519 1518 1517 1517 1516 1516 1515 1514 1513 1512 1512 1511 1511 1510 1510 1509 1509 1508 1507 1507 1506 1506 1505 1505
1521 1522 1523 1524 1524 1525 1525 1526 1527 1527 1528 1529 1530 1530 1531 1531 1532 1533 1533 1534 1534 1535 1535 1535 1535 1535 1535 1535 1535 1536 1536 1536 1536 1536 1536 1536 1536 1536 1536 1536 1535 1535 1535 1535 1534 1534 1534 1534 1533 1533 1533 1532 1532 1532 1531 1531 1531 1531 1531 1530 1530 1529 1529 1528 1528 1527 1526 1526 1525 1525 1524 1523 1523 1522 1521 1521 1520 1519 1519 1518 1517 1516 1516 1515 1514 1514 1513 1512 1511 1511 1510 1510 1509 1508 1508 1507 1506 1506 1506 1505 1504 1504 1503